Regional Weather Roundup
Issued by NWS

Home | Current Version | Previous Version | Graphics & Text | Print | Product List | Glossary On
Versions: 1 2 3 4 5 6 7 8 9 10 11 12 13 14 15 16 17 18 19 20 21 22 23 24 25 26 27 28 29 30 31 32 33 34 35 36 37 38 39 40 41 42 43 44 45 46 47 48 49 50
000
ASUS43 KDTX 210901
RWRMI
MICHIGAN HOURLY REGIONAL WEATHER ROUNDUP
NATIONAL WEATHER SERVICE DETROIT/PONTIAC MI
400 AM EST WED FEB 21 2018

NOTE: "FAIR" INDICATES FEW OR NO CLOUDS BELOW 12,000 FEET WITH NO
SIGNIFICANT WEATHER AND/OR OBSTRUCTION TO VISIBILITY.

MIZ047>049-052>055-059>063-066>070-074>076-081>083-211000-
SOUTHEAST LOWER MICHIGAN

CITY           SKY/WX    TMP DP  RH WIND       PRES   REMARKS
ADRIAN         LGT RAIN  46  45  96 N10G20    30.11R
ALMA           LGT SNOW  35  35 100 NW9       30.15R WCI  28
ANN ARBOR      LGT RAIN  45  44  97 NW15G22   30.09R
BAD AXE        LGT RAIN  40  39  99 NW9       30.10R WCI  33
CARO           MIX PCPN  40  40  98 NW7       30.11R
DETROIT CITY   LGT RAIN  55  54  96 W6        30.06R FOG
DETROIT        RAIN      55  54  96 W6        30.06F FOG
FLINT          LGT RAIN  39  38  96 W12       30.13R WCI  32
GROSSE ILE     RAIN      47  47  98 CALM      30.06S VSB 3/4
HILLSDALE      LGT RAIN  41  37  87 NW9       30.12R
HOWELL         RAIN      40  40  99 NW5       30.13R

CITY           SKY/WX    TMP DP  RH WIND       PRES   REMARKS
JACKSON        LGT RAIN  40  38  93 W9        30.13R WCI  34
LAMBERTVILLE   RAIN      55  53  95 W3        30.07R
LANSING        RAIN      37  36  96 NW8       30.15R WCI  31
LAPEER         LGT RAIN  43  42  96 NW7       30.11R
MASON          MIX PCPN  40  36  86 NW7       30.13R WCI  35
MT. CLEMENS    LGT RAIN  47  47 100 CALM      30.05R
PONTIAC        LGT RAIN  44  43  96 NW14      30.09R FOG
PORT HOPE        N/A     36  35  96 N6        30.09R WCI  31
PORT HURON     LGT RAIN  52  50  93 S6        30.06R
TRI CITIES     LGT RAIN  37  35  92 NW10      30.13R FOG     WCI  30
MIDLAND        LGT RAIN  37  35  95 NW9       30.13R WCI  30
TROY           LGT RAIN  52  51  95 NW12      30.10R
SAGINAW HB     LGT RAIN  37  36  93 NW10      30.13R WCI  30
$$
MIZ043>046-050>051-056>058-064>065-071>073-077>080-211000-
SOUTHWEST LOWER MICHIGAN

CITY           SKY/WX    TMP DP  RH WIND       PRES   REMARKS
BATTLE CREEK   RAIN      37  35  92 NW8       30.16R FOG     WCI  31
BENTON HARBOR  FRZ RAIN  33  29  85 NW8G20    30.25R FOG     WCI  26
BIG RAPIDS     CLOUDY    31  29  92 NW9G16    30.17R WCI  23
COLDWATER      LGT SNOW  39  39 100 NW7       30.15R WCI  34
FREMONT        CLOUDY    31  27  84 NW14G20   30.21R WCI  20
HOLLAND        FRZ RAIN  32  28  85 N14G21    30.23R WCI  22
GRAND RAPIDS   LGT RAIN  33 N/A N/A NW12      30.18R WCI  24
IONIA          LGT SNOW  35  34  98 W12       30.15R WCI  26
KALAMAZOO      RAIN      35  32  88 NW14      30.17R FOG     WCI  26
LUDINGTON      CLOUDY    31  27  86 NW10      30.24R WCI  22
MARSHALL       RAIN      37  37  97 NW6       30.15R WCI  33
MOUNT PLEASANT LGT RAIN  35  33  94 NW8       30.14R WCI  28
MUSKEGON       CLOUDY    31  25  78 NW14      30.23R WCI  21
SOUTH HAVEN    MIX PCPN  32  31  94 N13G21    30.23R WCI  23
$$
MIZ016>042-211000-
NORTHERN LOWER MICHIGAN

CITY           SKY/WX    TMP DP  RH WIND       PRES   REMARKS
ALPENA         LGT SNOW  31  30  96 NW9       30.14R FOG     WCI  23
BEAVER ISLAND  CLOUDY    25  19  77 NW13G22   30.22R WCI  13
BELLAIRE       CLOUDY    29  27  91 CALM      30.22R
CADILLAC       LGT SNOW  30  29  97 NW10G18   30.15R WCI  21
CHARLEVOIX     CLOUDY    27  24  88 NW13      30.25R WCI  16
FRANKFORT      CLOUDY    31  25  80 NW9G17    30.24R WCI  22
GAYLORD        CLOUDY    26  26 100 VRB6      30.14R WCI  19
GRAYLING       LGT SNOW  30  28  93 NW9       30.13R FOG     WCI  22
HARBOR SPRINGS CLOUDY    26  22  84 NW9       30.20R WCI  17
HOUGHTON LAKE  CLOUDY    32  29  88 NW13      30.13R WCI  22
MANISTEE       CLOUDY    31  25  78 NW12      30.24R WCI  22
OSCODA         MIX PCPN  35  34  95 W3        30.11R
PELLSTON       CLOUDY    25  20  81 NW20G28   30.20R WCI  11
ROGERS CITY    CLOUDY    28  25  86 NW8G21    30.17R WCI  20
TRAVERSE CITY  CLOUDY    31  24  75 NW13G22   30.21R WCI  21
$$
MIZ007>008-015-211000-
EASTERN UPPER MICHIGAN

CITY           SKY/WX    TMP DP  RH WIND       PRES   REMARKS
KINROSS        FLURRIES  22  20  92 NW18G24   30.15R WCI   7
MACKINAC ISLAN CLOUDY    24  20  84 NW15G21   30.17R WCI  11
NEWBERRY       CLOUDY    20  17  89 NW13G21   30.19R WCI   7
S. S. MARIE    CLOUDY    24  19  81 NW22G28   30.15R WCI   9
MUNISING         N/A     20  15  81 NW10      30.24R WCI   9
$$
MIZ004>006-011>014-085-211000-
CENTRAL UPPER MICHIGAN

CITY           SKY/WX    TMP DP  RH WIND       PRES   REMARKS
MANISTIQUE     CLOUDY    21  16  79 NW12G17   30.23R WCI   9
ESCANABA       FAIR      19  14  81 W8        30.27R WCI   9
MENOMINEE      FAIR      22  16  78 NW6       30.29R WCI  14
$$
MIZ001>003-009>011-084-211000-
WESTERN UPPER MICHIGAN

CITY           SKY/WX    TMP DP  RH WIND       PRES   REMARKS
IRON MOUNTAIN  CLOUDY    17  10  74 W8        30.23R WCI   7
HOUGHTON       FLURRIES  16   8  71 W16       30.21R WCI   1
COPPER HARBOR    N/A     16  10  77 NW6       30.24R WCI   7
IRONWOOD       FLURRIES   9   5  84 W12       30.29R WCI  -6
$$

ABBREVIATIONS USED IN REMARKS
   TC - TEMPERATURE IN CELSIUS
  WCI - WIND CHILL INDEX
   HX - HEAT INDEX
  VSB - VISIBILITY





USA.gov is the U.S. government's official web portal to all federal, state and local government web resources and services.